Stations météo

réclame
Mon MeteoGroup
Chambery/Aix-Les-Bains, France (7491): Température de l'air & dewpoint: 12.01.2020 14:00:00 - 18.01.2020 14:00:00 (CET)Chambery/Aix-Les-Bains, France (7491): Température de l'air 5cm: 12.01.2020 14:00:00 - 18.01.2020 14:00:00 (CET)Chambery/Aix-Les-Bains, France (7491): Température de l'air -20cm & Température de l'air -100cm: 12.01.2020 14:00:00 - 18.01.2020 14:00:00 (CET)Chambery/Aix-Les-Bains, France (7491): Vitesse du vent & gusts: 12.01.2020 14:00:00 - 18.01.2020 14:00:00 (CET)Chambery/Aix-Les-Bains, France (7491): Direction du vent: 12.01.2020 14:00:00 - 18.01.2020 14:00:00 (CET)Chambery/Aix-Les-Bains, France (7491): reduced air pressure: 12.01.2020 14:00:00 - 18.01.2020 14:00:00 (CET)Chambery/Aix-Les-Bains, France (7491): visibility: 12.01.2020 14:00:00 - 18.01.2020 14:00:00 (CET)Chambery/Aix-Les-Bains, France (7491): Ensoleillement: 12.01.2020 14:00:00 - 18.01.2020 14:00:00 (CET)Chambery/Aix-Les-Bains, France (7491): Quantités de précipitations: 12.01.2020 14:00:00 - 18.01.2020 14:00:00 (CET)
Date & Time tt [°C] td [°C] tt 5cm [°C] tt -20cm [°C] tt -100cm [°C] ff [km/h] ff [knt] fx [km/h] fx [knt] dd ppp [hPa] vv [km] sd [min] rr [mm]
18.01.2020 14:00:00 4,0 3,4 5,7 4,5 7,3 4 2 10 5 SSE 1028,9 14 15 0,0
18.01.2020 13:00:00 3,0 2,4 5,4 4,5 7,4 4 2 13 7 N 1029,9 5 0 0,0
18.01.2020 12:00:00 2,7 2,1 3,7 4,4 7,3 2 1 8 4 E 1031,1 3,2 0 0,0
18.01.2020 11:00:00 2,2 1,6 2,4 4,5 7,4 6 4 10 6 E 1031,7 1,7 0 0,0
18.01.2020 10:00:00 1,7 1,1 1,2 4,4 7,3 6 3 10 6 ENE 1031,5 1,1 0 0,0
18.01.2020 09:00:00 1,6 1,0 0,1 4,5 7,4 2 1 8 4 E 1031,3 3,6 0 0,0
18.01.2020 08:00:00 0,8 0,2 -3,1 4,5 7,4 3 2 6 3 NNW 1031,1 0,9 0 0,0
18.01.2020 07:00:00 0,5 -0,2 -2,9 4,5 7,4 3 2 6 3 SSW 1031,0 0,1 0 0,0
18.01.2020 06:00:00 0,7 0,0 -1,8 4,5 7,4 5 3 10 5 WNW 1031,2 1,2 0 0,0
18.01.2020 05:00:00 1,6 0,7 -0,9 4,5 7,4 4 2 9 5 S 1031,1 0,1 0 0,0
18.01.2020 04:00:00 2,0 1,1 0,1 4,5 7,4 9 5 13 7 S 1031,0 0,5 0 0,0
18.01.2020 03:00:00 3,0 2,1 0,5 4,5 7,4 3 2 10 6 NNE 1031,0 1,0 0 0,0
18.01.2020 02:00:00 4,2 3,3 3,1 4,5 7,4 4 2 10 5 S 1030,5 1,9 0 0,4
18.01.2020 01:00:00 4,8 3,9 2,9 4,4 7,4 8 5 13 7 ENE 1029,8 4,8 0 0,2
18.01.2020 00:00:00 3,8 2,8 1,2 4,4 7,4 8 4 9 5 SSE 1029,6 3,8 0 0,0
17.01.2020 23:00:00 5,1 4,1 4,0 4,4 7,4 0 0 10 5 N 1029,2 4,0 0 0,8
17.01.2020 22:00:00 4,9 3,6 4,1 4,4 7,4 5 3 9 5 SSE 1028,6 3,7 0 0,6
17.01.2020 21:00:00 5,3 3,8 4,5 4,3 7,4 3 1 8 5 S 1028,2 3,0 0 1,2
17.01.2020 20:00:00 5,7 3,9 4,8 4,3 7,4 6 3 18 10 SE 1027,2 6 0 0,6
17.01.2020 19:00:00 6,6 4,1 5,0 4,2 7,4 12 7 25 14 ESE 1025,9 9 0 0,8
17.01.2020 18:00:00 6,3 4,1 5,1 4,2 7,4 18 10 35 19 SSW 1024,7 20 0 0,2
17.01.2020 17:00:00 6,2 4,4 4,6 4,2 7,4 23 12 34 18 SSW 1024,2 22 0 0,0
17.01.2020 16:00:00 4,8 3,3 4,2 4,1 7,4 4 2 22 12 SSW 1024,4 7 0 2,3
17.01.2020 15:00:00 4,5 2,8 4,4 4,1 7,4 6 4 10 6 E 1024,5 2,7 0 2,8
17.01.2020 14:00:00 4,9 2,4 4,9 4,1 7,4 5 3 8 4 SSE 1024,0 2,4 0 1,6
17.01.2020 13:00:00 5,2 1,7 5,0 4,1 7,5 2 1 9 5 NNW 1025,0 5 0 0,6
17.01.2020 12:00:00 5,1 1,2 5,5 4,1 7,4 6 4 11 6 NNW 1025,0 12 3 0,0
17.01.2020 11:00:00 5,5 2,7 2,5 4,1 7,4 5 3 13 7 N 1025,1 16 30 0,0
17.01.2020 10:00:00 2,1 0,5 0,4 4,2 7,4 4 2 10 5 WSW 1025,9 16 5 0,0
17.01.2020 09:00:00 0,1 -1,3 -4,2 4,2 7,5 0 0 9 5 N 1027,0 11 8 0,0
17.01.2020 08:00:00 -1,8 -3,4 -5,6 4,2 7,5 4 2 12 7 SSE 1026,9 10 0 0,0
17.01.2020 07:00:00 -2,6 -4,6 -5,6 4,3 7,4 4 2 8 4 S 1027,1 11 0 0,0
17.01.2020 06:00:00 -0,4 -2,6 -5,2 4,3 7,5 4 2 8 4 E 1026,8 15 0 0,0
17.01.2020 05:00:00 0,3 -2,3 -3,8 4,4 7,5 3 2 20 11 SW 1026,6 20 0 0,0
17.01.2020 04:00:00 1,2 -1,2 -2,6 4,4 7,5 11 6 23 13 SE 1026,5 20 0 0,0
17.01.2020 03:00:00 0,2 -1,2 -4,0 4,4 7,5 15 8 23 12 S 1027,1 19 0 0,0
17.01.2020 02:00:00 -1,4 -2,7 -5,4 4,4 7,5 13 7 17 9 SSE 1027,5 16 0 0,0
17.01.2020 01:00:00 -0,8 -2,1 -5,3 4,5 7,5 3 1 8 4 SSW 1027,8 9 0 0,0
17.01.2020 00:00:00 -0,4 -1,8 -5,3 4,5 7,5 2 1 9 5 E 1028,2 10 0 0,0
16.01.2020 23:00:00 0,5 -1,0 -4,8 4,5 7,5 2 1 9 5 N 1028,1 12 0 0,0
16.01.2020 22:00:00 0,1 -1,7 -4,4 4,5 7,5 5 3 7 4 S 1028,3 11 0 0,0
16.01.2020 21:00:00 1,2 -0,7 -3,9 4,6 7,5 4 2 6 4 S 1028,7 16 0 0,0
16.01.2020 20:00:00 0,9 -1,3 -3,8 4,5 7,5 5 3 8 4 S 1028,9 18 0 0,0
16.01.2020 19:00:00 3,0 0,1 -2,7 4,5 7,5 5 3 6 3 SSW 1028,7 18 0 0,0
16.01.2020 18:00:00 3,7 0,0 -2,2 4,5 7,5 3 1 5 3 S 1028,4 16 0 0,0
16.01.2020 17:00:00 6,2 1,3 0,1 4,4 7,5 2 1 7 4 NE 1028,1 20 12 0,0
16.01.2020 16:00:00 9,5 1,6 11,1 4,3 7,5 6 3 12 6 NNW 1027,4 20 60 0,0
16.01.2020 15:00:00 10,9 0,6 15,5 4,3 7,5 7 4 11 6 N 1027,6 32 60 0,0
16.01.2020 14:00:00 11,2 0,0 15,5 4,3 7,5 5 3 11 6 SSE 1028,0 37 60 0,0
16.01.2020 13:00:00 10,0 0,6 13,3 4,3 7,5 5 3 10 5 SSE 1029,0 20 60 0,0
16.01.2020 12:00:00 7,8 2,3 10,5 4,3 7,5 5 3 11 6 SSE 1030,2 19 60 0,0
16.01.2020 11:00:00 5,7 3,2 3,9 4,3 7,5 3 1 9 5 ESE 1031,0 15 60 0,0
16.01.2020 10:00:00 2,2 1,2 -3,2 4,4 7,5 4 2 8 4 SE 1031,3 10 60 0,0
16.01.2020 09:00:00 -1,8 -2,6 -5,9 4,4 7,5 5 3 8 5 S 1031,6 7 11 0,0
16.01.2020 08:00:00 -3,0 -4,0 -6,0 4,5 7,6 5 3 6 4 SSE 1031,3 4,4 0 0,0
16.01.2020 07:00:00 -2,4 -3,4 -5,6 4,5 7,5 3 2 5 3 S 1031,1 7 0 0,0
16.01.2020 06:00:00 -1,3 -2,3 -5,3 4,5 7,6 4 2 10 5 N 1030,8 7 0 0,0
16.01.2020 05:00:00 -1,3 -2,3 -5,0 4,5 7,6 3 2 10 6 S 1030,9 7 0 0,0
16.01.2020 04:00:00 0,0 -1,0 -4,5 4,6 7,6 2 1 5 3 W 1031,1 6 0 0,0
16.01.2020 03:00:00 0,6 -0,4 -4,0 4,6 7,6 5 3 10 6 S 1030,9 7 0 0,0
16.01.2020 02:00:00 0,8 -0,5 -2,7 4,6 7,6 4 2 10 6 SE 1030,8 11 0 0,0
16.01.2020 01:00:00 -0,3 -1,6 -3,3 4,7 7,6 7 4 8 5 SSE 1030,9 8 0 0,0
16.01.2020 00:00:00 0,1 -1,2 -3,6 4,7 7,6 3 2 11 6 S 1030,8 8 0 0,0
15.01.2020 23:00:00 0,2 -1,6 -3,5 4,7 7,6 7 4 9 5 S 1030,4 8 0 0,0
15.01.2020 22:00:00 0,9 -1,0 -3,0 4,7 7,6 2 1 10 5 SSW 1029,8 11 0 0,0
15.01.2020 21:00:00 1,9 -0,5 -2,3 4,7 7,6 5 3 12 7 ESE 1029,0 15 0 0,0
15.01.2020 20:00:00 2,6 -0,2 -1,2 4,7 7,6 8 5 14 7 SSE 1028,7 16 0 0,0
15.01.2020 19:00:00 3,5 0,2 -1,3 4,7 7,6 6 3 16 9 N 1027,8 18 0 0,0
15.01.2020 18:00:00 5,5 1,4 -0,6 4,6 7,6 4 2 11 6 WSW 1026,3 20 0 0,0
15.01.2020 17:00:00 8,1 1,7 2,3 4,5 7,6 3 2 10 5 WNW 1025,1 19 12 0,0
15.01.2020 16:00:00 11,6 2,1 10,1 4,4 7,6 4 2 13 7 W 1024,5 42 11 0,0
15.01.2020 15:00:00 11,1 1,9 11,8 4,4 7,6 4 2 11 6 NNE 1024,3 37 0 0,0
15.01.2020 14:00:00 12,0 0,7 12,7 4,4 7,7 5 3 13 7 SSE 1023,8 43 0 0,0
15.01.2020 13:00:00 11,4 0,2 11,5 4,3 7,6 9 5 22 12 S 1023,5 46 2 0,0
15.01.2020 12:00:00 10,5 0,2 12,4 4,3 7,6 5 3 18 10 S 1023,7 20 47 0,0
15.01.2020 11:00:00 9,0 0,7 5,1 4,4 7,6 12 6 19 10 SSE 1023,8 27 60 0,0
15.01.2020 10:00:00 4,7 -0,9 0,4 4,4 7,7 16 9 21 11 SSE 1023,5 20 60 0,0
15.01.2020 09:00:00 2,0 -1,8 -1,7 4,4 7,7 17 9 22 12 SSE 1023,7 20 11 0,0
15.01.2020 08:00:00 0,5 -2,7 -3,4 4,4 7,7 14 8 19 11 SSE 1023,4 29 0 0,0
15.01.2020 07:00:00 0,4 -2,8 -3,3 4,5 7,7 16 9 19 10 S 1023,0 25 0 0,0
15.01.2020 06:00:00 0,2 -3,2 -2,2 4,5 7,7 14 8 20 11 SSE 1022,7 25 0 0,0
15.01.2020 05:00:00 -0,2 -3,4 -2,7 4,5 7,7 14 8 19 11 SSE 1022,7 27 0 0,0
15.01.2020 04:00:00 0,4 -3,0 -3,5 4,5 7,7 14 7 19 10 SSE 1022,8 23 0 0,0
15.01.2020 03:00:00 0,2 -3,7 -4,2 4,6 7,7 13 7 19 10 S 1023,4 20 0 0,0
15.01.2020 02:00:00 0,3 -3,4 -3,9 4,6 7,7 4 2 8 4 NE 1023,3 19 0 0,0
15.01.2020 01:00:00 0,8 -3,7 -2,6 4,6 7,7 5 3 17 9 ESE 1023,1 19 0 0,0
15.01.2020 00:00:00 2,6 -2,7 -0,7 4,6 7,7 13 7 22 12 SSE 1022,9 22 0 0,0
14.01.2020 23:00:00 3,4 -1,0 -2,1 4,6 7,7 9 5 18 10 SSW 1022,5 18 0 0,0
14.01.2020 22:00:00 2,7 -1,3 -3,1 4,6 7,7 9 5 17 9 SSE 1022,7 25 0 0,0
14.01.2020 21:00:00 2,4 -1,4 -2,7 4,6 7,7 2 1 13 7 SSE 1022,7 20 0 0,0
14.01.2020 20:00:00 2,8 -1,2 -2,2 4,6 7,7 10 5 15 8 SSE 1022,6 20 0 0,0
14.01.2020 19:00:00 4,7 -1,5 -1,9 4,6 7,7 2 1 8 4 SSE 1022,4 24 0 0,0
14.01.2020 18:00:00 6,8 -1,6 -0,1 4,5 7,7 2 1 19 10 ENE 1021,6 39 0 0,0
14.01.2020 17:00:00 10,1 -1,6 5,2 4,4 7,7 8 5 16 8 SW 1020,7 13 12 0,0
14.01.2020 16:00:00 12,4 -1,2 12,7 4,4 7,7 4 2 13 7 W 1020,6 51 25 0,0
14.01.2020 15:00:00 11,7 -2,2 12,6 4,4 7,7 9 5 20 11 SW 1020,8 14 42 0,0
14.01.2020 14:00:00 12,4 -1,2 14,6 4,3 7,7 10 5 20 11 SW 1021,0 35 60 0,0
14.01.2020 13:00:00 10,8 -1,6 12,5 4,4 7,7 11 6 24 13 SSW 1022,0 28 60 0,0
14.01.2020 12:00:00 8,7 -0,9 8,4 4,4 7,8 11 6 26 14 SSW 1022,6 14 60 0,0
14.01.2020 11:00:00 5,6 -0,3 3,3 4,5 7,7 15 8 28 15 SSE 1023,3 13 60 0,0
14.01.2020 10:00:00 3,1 0,5 -2,0 4,5 7,7 11 6 22 12 S 1023,2 14 60 0,0
14.01.2020 09:00:00 -1,4 -2,4 -6,6 4,5 7,7 13 7 23 13 SE 1023,3 10 11 0,0
14.01.2020 08:00:00 -3,7 -5,0 -6,9 4,6 7,7 9 5 16 9 S 1023,5 11 0 0,0
14.01.2020 07:00:00 -2,8 -3,9 -6,6 4,6 7,8 4 2 15 8 SSW 1023,4 9 0 0,0
14.01.2020 06:00:00 -3,3 -4,6 -6,6 4,7 7,8 8 4 12 6 SSE 1022,9 9 0 0,0
14.01.2020 05:00:00 -2,9 -4,0 -5,0 4,7 7,8 5 3 11 6 NNE 1022,0 9 0 0,0
14.01.2020 04:00:00 -2,0 -3,0 -4,6 4,8 7,8 8 4 10 5 SSE 1022,4 8 0 0,0
14.01.2020 03:00:00 -2,6 -3,6 -6,0 4,8 7,8 5 3 9 5 SE 1023,3 6 0 0,0
14.01.2020 02:00:00 -2,8 -3,9 -6,7 4,8 7,8 4 2 6 3 N 1023,0 4,8 0 0,0
14.01.2020 01:00:00 -2,5 -3,6 -6,5 4,9 7,8 3 2 6 3 SSW 1023,6 3,8 0 0,0
14.01.2020 00:00:00 -2,3 -3,6 -6,4 4,9 7,8 3 1 6 3 S 1023,2 5 0 0,0
13.01.2020 23:00:00 -2,9 -4,2 -6,4 5,0 7,8 5 3 8 4 SE 1023,0 6 0 0,0
13.01.2020 22:00:00 -1,3 -2,6 -6,3 5,0 7,8 3 2 6 3 W 1022,7 5 0 0,0
13.01.2020 21:00:00 -0,6 -2,0 -5,4 5,0 7,8 4 2 8 5 SE 1022,8 5 0 0,0
13.01.2020 20:00:00 -0,9 -2,6 -5,1 5,1 7,8 5 3 8 4 S 1023,4 6 0 0,0
13.01.2020 19:00:00 0,2 -1,9 -4,6 5,0 7,8 3 1 9 5 WSW 1023,6 6 0 0,0
13.01.2020 18:00:00 1,6 -1,1 -3,6 5,0 7,8 4 2 8 4 WSW 1023,5 8 0 0,0
13.01.2020 17:00:00 3,0 -1,6 -2,0 4,9 7,8 2 1 9 5 SSE 1023,0 11 9 0,0
13.01.2020 16:00:00 5,9 0,4 5,7 4,9 7,8 4 2 14 7 N 1022,4 15 31 0,0
13.01.2020 15:00:00 5,5 0,5 6,9 4,9 7,8 11 6 17 9 N 1023,8 12 29 0,0
13.01.2020 14:00:00 5,9 2,4 8,7 4,8 7,8 3 2 7 4 NE 1024,2 12 36 0,0
13.01.2020 13:00:00 3,8 2,2 7,5 4,8 7,8 3 1 10 5 NNE 1024,8 8 52 0,0
13.01.2020 12:00:00 2,8 1,9 6,1 4,8 7,8 3 1 7 4 ESE 1026,0 8 60 0,0
13.01.2020 11:00:00 1,0 0,3 1,2 4,8 7,8 3 1 7 4 ENE 1027,6 2,7 41 0,0
13.01.2020 10:00:00 -0,6 -1,3 -0,3 4,8 7,8 3 1 7 4 SSW 1028,0 0,1 0 0,0
13.01.2020 09:00:00 -0,9 -1,6 -0,5 4,8 7,8 4 2 8 5 S 1028,0 0,1 0 0,0
13.01.2020 08:00:00 -0,5 -1,2 -0,4 4,8 7,8 0 0 5 3 N 1028,0 0,1 0 0,0
13.01.2020 07:00:00 -0,3 -1,0 -0,3 4,9 7,8 2 1 6 4 SW 1028,1 0,1 0 0,0
13.01.2020 06:00:00 -0,2 -1,0 -0,2 4,9 7,8 4 2 6 4 SSW 1028,2 0,1 0 0,0
13.01.2020 05:00:00 0,1 -0,8 0,0 4,9 7,8 2 1 8 5 SE 1028,4 0,1 0 0,0
13.01.2020 04:00:00 0,2 -0,7 -1,0 5,0 7,8 5 3 8 4 S 1028,7 0,2 0 0,0
13.01.2020 03:00:00 -1,0 -2,0 -2,8 5,0 7,8 3 1 5 3 SE 1029,3 4,0 0 0,0
13.01.2020 02:00:00 -1,2 -2,2 -5,6 5,1 7,8 2 1 6 3 SSE 1029,5 2,2 0 0,0
13.01.2020 01:00:00 -2,1 -3,2 -5,9 5,1 7,8 5 3 8 5 S 1029,8 3,2 0 0,0
13.01.2020 00:00:00 -2,8 -4,1 -5,5 5,2 7,8 6 3 8 4 SSE 1030,5 4,2 0 0,0
12.01.2020 23:00:00 -0,6 -1,9 -4,2 5,2 7,8 0 0 6 4 N 1030,4 4,7 0 0,0
12.01.2020 22:00:00 -0,5 -1,9 -5,0 5,2 7,8 5 3 8 4 S 1030,5 6 0 0,0
12.01.2020 21:00:00 -0,2 -1,9 -4,6 5,2 7,8 2 1 4 2 SSE 1030,8 6 0 0,0
12.01.2020 20:00:00 1,0 -1,1 -3,5 5,3 7,9 0 0 5 3 N 1030,7 10 0 0,0
12.01.2020 19:00:00 1,3 -1,3 -3,3 5,3 7,8 4 2 7 4 SE 1030,7 11 0 0,0
12.01.2020 18:00:00 2,6 -0,9 -2,5 5,2 7,8 3 2 6 3 SSW 1030,2 16 0 0,0
12.01.2020 17:00:00 4,6 -0,4 -0,6 5,2 7,8 0 0 5 3 N 1029,8 20 8 0,0
12.01.2020 16:00:00 6,6 0,5 7,5 5,2 7,9 4 2 8 4 N 1029,7 17 55 0,0
12.01.2020 15:00:00 6,8 0,2 10,6 5,2 7,8 5 3 16 8 N 1030,0 20 60 0,0
12.01.2020 14:00:00 6,3 0,0 10,8 5,1 7,8 10 5 14 8 N 1030,6 14 60 0,0

tt = Température de l'air
td = dewpoint
tt 5cm = Température de l'air 5cm
tt -20cm = Température de l'air -20cm
tt -100cm = Température de l'air -100cm
ff = Vitesse du vent
fx = gusts
dd = Direction du vent
ppp = reduced air pressure
vv = visibility
sd = Ensoleillement
rr = Quantités de précipitations

stations d'obs. à proximité